星链-5010 (STARLINK-5010 )

导读 | 星芒AI

STARLINK-5010 是 SpaceX Starlink 卫星互联网项目中的第 5010 颗卫星,属于低轨通信卫星群,旨在为全球用户提供高速、低延迟的互联网服务。该卫星采用先进推进系统和激光通信技术,增强网络稳定性和数据传输效率。其部署进一步扩大了 Starlink 的覆盖范围,支持偏远地区网络接入,并为潜在的星链应用(如星舰通信)提供基础设施。

基本信息
目录编号:
53930
目录名称:
STARLINK-5010
国际标识:
2022-119AW
轨道中心:
EARTH
卫星名称:
星链-5010
卫星全名:
星链-5010 (STARLINK-5010 )
卫星状态:
在轨 (已飞行1184 天)
发射日期:
2022-09-24 UTC
国别 :
美国 (US)
星等 :
--
轨道信息
数据来源 国际轨道数据
星历时间: 2025-12-21T08:40:50+0800
9小时前
查看轨道信息
半长轴: 6917.888km
偏心率: 0.000163
轨道倾角: 53.220°
近地点辐角 89.493°
升交点赤经 296.989°
平近点角 270.625°
近地点: 538.623km
远地点: 540.879km
周期: 95.438分钟
每日圈数: 15.088377
详细信息
固有亮度:
5
最大亮度:
2.5
卫星平台:
Starlink v1.5
覆盖范围:
全球
运营商:
太空探索技术公司
运营商所在国:
美国
制造商(研发单位):
太空探索技术公司
制造商所在国:
美国
使用方式:
暂无
卫星简介
星链(Starlink)计划是由太空探索技术公司(SpaceX)提出的一个巨型低轨卫星互联网星座项目,计划在2019年至2024年间在太空搭建由约1.2万颗卫星组成的“星链”网络,其中1584颗将部署在地球上空550千米处的近地轨道,并从2020年开始工作。该卫星仍在工作。
2D轨道图
3D轨道图
轨道高度分析图
轨道倾角分析图
轨道综合分析图
查看轨道综合分析图